Location: Amarillo Post Office Jordan Station
(35.1907°N, 101.9342°W)
Time: 13:27:43
(UTC+00:00)

PSLV R/B - Pass Details

Date: 24 January 2021
Orbit: 567 x 598 km, 98.2° (Epoch: 03 March)

Event Time Altitude Azimuth Distance (km) Brightness Sun altitude
Rises 12:47:51 0° 177° (S) 2,773 7.6 -13.2°
Reaches altitude 10° 12:50:01 10° 182° (S) 1,884 6.7 -12.8°
Maximum altitude 12:54:00 53° 259° (W) 720 4.1 -12.0°
Drops below altitude 10° 12:58:04 10° 337° (NNW) 1,916 6.2 -11.2°
Sets 13:00:17 0° 342° (NNW) 2,825 7.1 -10.8°
